• In Deutschland
  • Länderverzeichnis
  • Für 7 Tage
  • Wassertemperatur
  • Satellitenkarten
  • Wetterkarte
  • Widgets
  • user-avatar
    Anmelden

    Stündliche Wetter Jajce

    Heute, 17 August, Freitag

    Zeit Temperatur Niederschläge Wind Luftdruck Luftfeuchtigkeit
    00:00 +14°C° 0 mm 1 m/S 676 mmHg 84%
    01:00 +14°C° 0 mm 1 m/S 676 mmHg 85%
    02:00 +14°C° 0 mm 1 m/S 675 mmHg 86%
    03:00 +14°C° 0 mm 1 m/S 675 mmHg 87%
    04:00 +13°C° 0 mm 1 m/S 675 mmHg 88%
    05:00 +14°C° 0 mm 0 m/S 676 mmHg 84%
    06:00 +15°C° 0 mm 0 m/S 676 mmHg 80%
    07:00 +17°C° 0 mm 0 m/S 676 mmHg 76%
    08:00 +19°C° 0 mm 0 m/S 677 mmHg 68%
    09:00 +23°C° 0 mm 1 m/S 677 mmHg 61%
    10:00 +25°C° 0 mm 1 m/S 678 mmHg 53%
    11:00 +25°C° 0,2 mm 1 m/S 678 mmHg 52%
    12:00 +26°C° 0,2 mm 1 m/S 678 mmHg 50%
    13:00 +27°C° 0,2 mm 1 m/S 678 mmHg 49%
    14:00 +26°C° 0,6 mm 1 m/S 678 mmHg 52%
    15:00 +25°C° 0,6 mm 1 m/S 677 mmHg 55%
    16:00 +25°C° 0,6 mm 1 m/S 677 mmHg 58%
    17:00 +23°C° 0,6 mm 1 m/S 677 mmHg 64%
    18:00 +21°C° 0,6 mm 1 m/S 676 mmHg 71%
    19:00 +19°C° 0,6 mm 1 m/S 676 mmHg 77%
    20:00 +19°C° 0,3 mm 1 m/S 676 mmHg 79%
    21:00 +18°C° 0,3 mm 1 m/S 676 mmHg 82%
    22:00 +16°C° 0,3 mm 1 m/S 676 mmHg 84%
    23:00 +16°C° 0,2 mm 1 m/S 676 mmHg 85%

    Morgen, 18 August, Samstag

    Zeit Temperatur Niederschläge Wind Luftdruck Luftfeuchtigkeit
    00:00 +16°C° 0,2 mm 1 m/S 676 mmHg 86%
    01:00 +15°C° 0,2 mm 1 m/S 676 mmHg 87%
    02:00 +15°C° 0 mm 1 m/S 676 mmHg 88%
    03:00 +15°C° 0 mm 1 m/S 676 mmHg 88%
    04:00 +14°C° 0 mm 1 m/S 676 mmHg 89%
    05:00 +15°C° 0,1 mm 0 m/S 677 mmHg 86%
    06:00 +16°C° 0,1 mm 0 m/S 677 mmHg 83%
    07:00 +17°C° 0,1 mm 0 m/S 678 mmHg 81%
    08:00 +21°C° 0,2 mm 1 m/S 678 mmHg 72%
    09:00 +23°C° 0,2 mm 1 m/S 679 mmHg 64%
    10:00 +25°C° 0,2 mm 1 m/S 679 mmHg 55%
    11:00 +26°C° 0,5 mm 2 m/S 679 mmHg 54%
    12:00 +26°C° 0,5 mm 2 m/S 679 mmHg 52%
    13:00 +27°C° 0,5 mm 3 m/S 679 mmHg 51%
    14:00 +27°C° 0,5 mm 2 m/S 679 mmHg 51%
    15:00 +26°C° 0,5 mm 2 m/S 679 mmHg 52%
    16:00 +26°C° 0,5 mm 2 m/S 679 mmHg 52%
    17:00 +24°C° 0,5 mm 2 m/S 678 mmHg 59%
    18:00 +22°C° 0,5 mm 1 m/S 678 mmHg 65%
    19:00 +20°C° 0,5 mm 1 m/S 677 mmHg 71%
    20:00 +20°C° 0,5 mm 1 m/S 678 mmHg 75%
    21:00 +19°C° 0,5 mm 1 m/S 678 mmHg 78%
    22:00 +18°C° 0,5 mm 1 m/S 678 mmHg 81%
    23:00 +18°C° 0,2 mm 1 m/S 678 mmHg 82%

    übermorgen, 19 August, Sonntag

    Zeit Temperatur Niederschläge Wind Luftdruck Luftfeuchtigkeit
    00:00 +16°C° 0,2 mm 1 m/S 678 mmHg 83%
    01:00 +16°C° 0,2 mm 1 m/S 677 mmHg 84%
    02:00 +16°C° 0,1 mm 1 m/S 677 mmHg 84%
    03:00 +15°C° 0,1 mm 1 m/S 677 mmHg 85%
    04:00 +15°C° 0,1 mm 1 m/S 677 mmHg 85%
    05:00 +16°C° 0,1 mm 1 m/S 677 mmHg 83%
    06:00 +18°C° 0,1 mm 1 m/S 678 mmHg 80%
    07:00 +20°C° 0,1 mm 1 m/S 678 mmHg 77%
    08:00 +21°C° 0,1 mm 1 m/S 679 mmHg 69%
    09:00 +23°C° 0,1 mm 2 m/S 679 mmHg 60%
    10:00 +25°C° 0,1 mm 3 m/S 680 mmHg 51%
    11:00 +26°C° 0,6 mm 3 m/S 680 mmHg 50%
    12:00 +26°C° 0,6 mm 3 m/S 679 mmHg 49%
    13:00 +27°C° 0,6 mm 3 m/S 679 mmHg 48%
    14:00 +26°C° 0,6 mm 3 m/S 679 mmHg 49%
    15:00 +26°C° 0,6 mm 3 m/S 679 mmHg 50%
    16:00 +26°C° 0,6 mm 2 m/S 678 mmHg 51%
    17:00 +24°C° 0,3 mm 2 m/S 678 mmHg 57%
    18:00 +21°C° 0,3 mm 2 m/S 678 mmHg 62%
    19:00 +20°C° 0,3 mm 1 m/S 677 mmHg 68%
    20:00 +19°C° 0 mm 1 m/S 677 mmHg 71%
    21:00 +18°C° 0 mm 1 m/S 677 mmHg 74%
    22:00 +16°C° 0 mm 1 m/S 677 mmHg 77%
    23:00 +16°C° 0 mm 1 m/S 677 mmHg 77%

    20 August, Montag

    Zeit Temperatur Niederschläge Wind Luftdruck Luftfeuchtigkeit
    00:00 +15°C° 0 mm 1 m/S 676 mmHg 77%
    01:00 +15°C° 0 mm 1 m/S 676 mmHg 78%
    02:00 +15°C° 0 mm 1 m/S 676 mmHg 78%
    03:00 +15°C° 0 mm 1 m/S 676 mmHg 78%
    04:00 +14°C° 0 mm 1 m/S 676 mmHg 78%
    05:00 +16°C° 0 mm 1 m/S 676 mmHg 76%
    06:00 +18°C° 0 mm 1 m/S 677 mmHg 73%
    07:00 +19°C° 0 mm 1 m/S 677 mmHg 70%
    08:00 +20°C° 0 mm 2 m/S 678 mmHg 63%
    09:00 +23°C° 0 mm 2 m/S 678 mmHg 56%
    10:00 +25°C° 0 mm 3 m/S 679 mmHg 49%
    11:00 +25°C° 0 mm 3 m/S 679 mmHg 47%
    12:00 +26°C° 0 mm 4 m/S 678 mmHg 46%
    13:00 +27°C° 0 mm 4 m/S 678 mmHg 44%
    14:00 +26°C° 0 mm 4 m/S 678 mmHg 46%
    15:00 +26°C° 0 mm 3 m/S 678 mmHg 48%
    16:00 +25°C° 0 mm 3 m/S 678 mmHg 49%
    17:00 +24°C° 0 mm 3 m/S 677 mmHg 55%
    18:00 +21°C° 0 mm 2 m/S 677 mmHg 61%
    19:00 +20°C° 0 mm 1 m/S 676 mmHg 67%
    20:00 +19°C° 0 mm 1 m/S 676 mmHg 70%
    21:00 +18°C° 0 mm 1 m/S 676 mmHg 72%
    22:00 +16°C° 0 mm 1 m/S 676 mmHg 74%
    23:00 +16°C° 0 mm 1 m/S 676 mmHg 75%

    21 August, Dienstag

    Zeit Temperatur Niederschläge Wind Luftdruck Luftfeuchtigkeit
    00:00 +15°C° 0 mm 1 m/S 676 mmHg 76%
    01:00 +15°C° 0 mm 1 m/S 676 mmHg 77%
    02:00 +15°C° 0 mm 1 m/S 676 mmHg 78%
    03:00 +14°C° 0 mm 1 m/S 676 mmHg 79%
    04:00 +14°C° 0 mm 1 m/S 676 mmHg 80%
    05:00 +16°C° 0 mm 1 m/S 676 mmHg 77%
    06:00 +18°C° 0 mm 1 m/S 677 mmHg 73%
    07:00 +19°C° 0 mm 1 m/S 678 mmHg 70%
    08:00 +21°C° 0 mm 1 m/S 678 mmHg 62%
    09:00 +23°C° 0 mm 2 m/S 679 mmHg 55%
    10:00 +25°C° 0 mm 2 m/S 679 mmHg 48%
    11:00 +26°C° 0 mm 3 m/S 679 mmHg 46%
    12:00 +27°C° 0 mm 3 m/S 679 mmHg 43%
    13:00 +28°C° 0 mm 3 m/S 679 mmHg 41%
    14:00 +28°C° 0 mm 3 m/S 679 mmHg 42%
    15:00 +27°C° 0 mm 3 m/S 679 mmHg 44%
    16:00 +27°C° 0 mm 3 m/S 678 mmHg 45%
    17:00 +25°C° 0,1 mm 2 m/S 678 mmHg 53%
    18:00 +23°C° 0,1 mm 2 m/S 677 mmHg 60%
    19:00 +20°C° 0,1 mm 1 m/S 677 mmHg 68%
    20:00 +19°C° 0,1 mm 1 m/S 677 mmHg 71%
    21:00 +19°C° 0,1 mm 1 m/S 677 mmHg 74%
    22:00 +18°C° 0,1 mm 1 m/S 677 mmHg 76%
    23:00 +18°C° 0 mm 1 m/S 677 mmHg 77%

    22 August, Mittwoch

    Zeit Temperatur Niederschläge Wind Luftdruck Luftfeuchtigkeit
    00:00 +16°C° 0 mm 1 m/S 677 mmHg 78%
    01:00 +16°C° 0 mm 1 m/S 677 mmHg 79%
    02:00 +16°C° 0 mm 1 m/S 677 mmHg 80%
    03:00 +15°C° 0 mm 1 m/S 676 mmHg 81%
    04:00 +15°C° 0 mm 1 m/S 676 mmHg 82%
    05:00 +16°C° 0 mm 1 m/S 677 mmHg 79%
    06:00 +17°C° 0 mm 0 m/S 677 mmHg 75%
    07:00 +18°C° 0 mm 0 m/S 678 mmHg 72%
    08:00 +22°C° 0 mm 1 m/S 678 mmHg 63%
    09:00 +24°C° 0 mm 1 m/S 679 mmHg 53%
    10:00 +26°C° 0 mm 2 m/S 679 mmHg 44%
    11:00 +27°C° 0 mm 2 m/S 679 mmHg 40%
    12:00 +28°C° 0 mm 3 m/S 679 mmHg 35%
    13:00 +29°C° 0 mm 3 m/S 679 mmHg 31%
    14:00 +28°C° 0 mm 3 m/S 679 mmHg 32%
    15:00 +28°C° 0 mm 3 m/S 678 mmHg 32%
    16:00 +28°C° 0 mm 2 m/S 678 mmHg 33%
    17:00 +25°C° 0 mm 2 m/S 678 mmHg 39%
    18:00 +21°C° 0 mm 2 m/S 677 mmHg 45%
    19:00 +19°C° 0 mm 1 m/S 676 mmHg 52%
    20:00 +19°C° 0 mm 1 m/S 676 mmHg 52%
    21:00 +18°C° 0 mm 1 m/S 676 mmHg 53%
    22:00 +16°C° 0 mm 1 m/S 676 mmHg 54%
    23:00 +15°C° 0 mm 1 m/S 676 mmHg 54%
    Mehr zeigen